This is the latest recevied weather packets stored in our database for station/object N6GPM. If no packets are shown the sender has not sent any weather packets the latest 10 day(s).
| Time | Temp. | Humidity | Pressure | Rain* | Wind** | Luminosity | Snow |
|---|---|---|---|---|---|---|---|
| 1777039123 | 11.11° C | 91% | 1017 hPa | 0 mm | - | 37 W/m² | - |
| 1777038818 | 10.56° C | 91% | 1016.8 hPa | 0 mm | - | 32 W/m² | - |
| 1777038515 | 10.56° C | 91% | 1016.8 hPa | 0 mm | - | 28 W/m² | - |
| 1777038213 | 10.56° C | 91% | 1016.8 hPa | 0 mm | - | 26 W/m² | - |
| 1777037909 | 10.56° C | 92% | 1016.7 hPa | 0 mm | - | 22 W/m² | - |
| 1777037606 | 10.56° C | 92% | 1016.5 hPa | 0 mm | - | 18 W/m² | - |
| 1777037302 | 10.56° C | 92% | 1016.6 hPa | 0 mm | - | 13 W/m² | - |
| 1777036999 | 10.56° C | 92% | 1016.6 hPa | 0 mm | - | 10 W/m² | - |
| 1777036697 | 10.56° C | 92% | 1016.5 hPa | 0 mm | - | 7 W/m² | - |
| 1777036396 | 10.56° C | 92% | 1016.5 hPa | 0 mm | - | 3 W/m² | - |
| 1777036093 | 10.56° C | 92% | 1016.4 hPa | 0 mm | - | 1 W/m² | - |
| 1777035788 | 10.56° C | 92% | 1016.4 hPa | 0 mm | - | 0 W/m² | - |
| 1777035484 | 10.56° C | 92% | 1016.5 hPa | 0 mm | - | 0 W/m² | - |
| 1777035183 | 10.56° C | 92% | 1016.3 hPa | 0 mm | - | 0 W/m² | - |
| 1777034881 | 10.56° C | 92% | 1016.4 hPa | 0 mm | - | 0 W/m² | - |
| 1777034578 | 10.56° C | 92% | 1016.4 hPa | 0 mm | - | 0 W/m² | - |
| 1777034274 | 10.56° C | 92% | 1016.4 hPa | 0 mm | - | 0 W/m² | - |
| 1777033970 | 10.56° C | 92% | 1016.4 hPa | 0 mm | - | 0 W/m² | - |
| 1777033666 | 10.56° C | 92% | 1016.1 hPa | 0 mm | - | 0 W/m² | - |
| 1777033363 | 10.56° C | 92% | 1016.3 hPa | 0 mm | - | 0 W/m² | - |
| 1777033061 | 10.56° C | 92% | 1016.2 hPa | 0 mm | - | 0 W/m² | - |
| 1777032756 | 10.56° C | 92% | 1016.4 hPa | 0 mm | - | 0 W/m² | - |
| 1777032453 | 10.56° C | 92% | 1016.4 hPa | 0 mm | - | 0 W/m² | - |
| 1777032147 | 11.11° C | 91% | 1016.2 hPa | 0 mm | - | 0 W/m² | - |
| 1777031843 | 11.11° C | 92% | 1016.4 hPa | 0 mm | - | 0 W/m² | - |
* Rain latest hour (hover to see other rain measurements)
** Current wind speed in m/s (hover to see current wind gust speed)